PBO Station Position Time Series. Reference Frame : NAM14
Format Version,1.1.0
4-character ID,P071
Station name,RailroadPsNV2006
Begin Date, 2006-09-29
End Date, 2019-10-07
Release Date, 2019-10-08
Reference position, 39.3465474712 North Latitude, -117.4011815257 East Longitude, 2085.35409 meters elevation,
Date, North (mm), East (mm), Vertical (mm), North Std. Deviation (mm), East Std. Deviation (mm),              Vertical Std. Deviation (mm), Quality,
2006-09-29,0.00, 0.00, 0.00, 2.22, 1.75, 7.90, repro,
2006-09-30,-0.10, 0.57, 7.00, 2.13, 1.71, 7.70, repro,
2006-10-01,0.83, -0.46, 5.98, 2.17, 1.78, 7.77, repro,
2006-10-02,0.73, -0.55, -2.56, 2.15, 1.73, 7.61, repro,
2006-10-03,-0.56, -0.83, -10.18, 2.15, 1.75, 7.62, repro,
2006-10-04,2.52, 0.18, 3.95, 2.16, 1.72, 7.77, repro,
2006-10-05,2.19, -0.60, 5.06, 2.15, 1.69, 7.73, repro,
2006-10-06,0.47, -0.57, 4.73, 2.16, 1.69, 7.80, repro,
2006-10-07,0.86, 0.03, -7.27, 2.24, 1.83, 8.20, repro,
2006-10-08,1.03, -0.96, -5.94, 2.24, 1.77, 8.10, repro,
2006-10-09,1.21, -1.33, -4.47, 2.25, 1.80, 8.34, repro,
2006-10-10,1.59, 0.21, -8.87, 2.18, 1.69, 7.79, repro,
2006-10-11,0.06, -0.17, -4.05, 2.19, 1.73, 8.01, repro,
2006-10-12,0.80, -0.86, -0.21, 2.19, 1.72, 7.75, repro,
2006-10-13,0.70, -0.51, 6.02, 2.05, 1.66, 7.42, repro,
2006-10-14,1.05, 0.47, 1.00, 2.09, 1.69, 7.62, repro,
2006-10-15,0.55, -0.94, 5.98, 2.09, 1.70, 7.65, repro,
2006-10-16,0.51, 1.84, 17.65, 2.13, 1.68, 7.78, repro,
2006-10-17,1.37, -0.15, 2.02, 2.10, 1.73, 7.79, repro,
2006-10-18,1.34, -1.25, -1.27, 2.05, 1.67, 7.45, repro,
2006-10-19,0.03, -1.07, -0.40, 2.18, 1.76, 7.92, repro,
2006-10-20,1.45, -1.25, -2.53, 2.22, 1.81, 8.35, repro,
2006-10-21,-0.53, 0.10, -3.52, 2.19, 1.73, 8.06, repro,
2006-10-22,0.54, -0.38, -3.36, 2.10, 1.74, 7.71, repro,
2006-10-23,1.49, 0.66, -3.55, 2.12, 1.73, 7.82, repro,
2006-10-24,0.43, -0.17, -0.78, 2.18, 1.77, 7.96, repro,
2006-10-25,2.08, -0.98, -2.85, 2.18, 1.78, 7.87, repro,
2006-10-26,1.62, -0.39, -2.75, 2.12, 1.76, 7.79, repro,
2006-10-27,1.78, -0.68, -7.43, 2.18, 1.79, 8.00, repro,
2006-10-28,-0.03, 0.03, -5.49, 2.07, 1.69, 7.55, repro,
2006-10-29,1.23, -1.11, -0.30, 2.14, 1.71, 7.82, repro,
2006-10-30,0.74, -0.60, 3.76, 2.03, 1.65, 7.35, repro,
2006-10-31,0.29, -1.09, -3.00, 2.06, 1.69, 7.55, repro,
2006-11-01,0.24, -0.42, -4.21, 2.05, 1.68, 7.48, repro,
2006-11-02,1.02, 0.82, 2.55, 2.05, 1.69, 7.48, repro,
2006-11-03,0.38, -0.33, -4.99, 2.07, 1.69, 7.50, repro,
2006-11-04,1.09, 0.66, -3.61, 2.12, 1.71, 7.63, repro,
2006-11-05,-0.08, 0.33, -1.48, 2.20, 1.78, 8.01, repro,
2006-11-06,-0.47, -0.61, -4.64, 2.06, 1.67, 7.54, repro,
2006-11-07,1.23, -0.49, -1.85, 2.20, 1.76, 8.04, repro,
2006-11-08,-0.08, -1.27, 3.73, 2.16, 1.72, 7.70, repro,
2006-11-09,3.02, -0.22, 5.23, 2.20, 1.80, 7.96, repro,
2006-11-10,0.55, -1.10, -2.46, 2.17, 1.74, 7.91, repro,
2006-11-11,0.97, 0.58, -1.32, 2.15, 1.74, 7.83, repro,
2006-11-12,0.78, -1.43, -3.84, 2.26, 1.82, 8.27, repro,
2006-11-13,0.32, 1.12, 4.17, 2.14, 1.71, 7.62, repro,
2006-11-14,2.82, -0.25, 11.24, 2.05, 1.65, 7.42, repro,
2006-11-15,1.23, 0.50, -4.71, 2.04, 1.64, 7.34, repro,
2006-11-16,0.35, -0.81, 2.52, 2.04, 1.64, 7.37, repro,
2006-11-17,1.40, -0.30, -6.91, 2.03, 1.64, 7.32, repro,
2006-11-18,1.44, -0.04, -6.29, 2.09, 1.68, 7.65, repro,
2006-11-19,1.12, -0.18, -7.36, 2.09, 1.68, 7.62, repro,
2006-11-20,1.44, 0.73, -4.71, 2.17, 1.68, 7.69, repro,
2006-11-21,1.19, 0.18, -0.42, 2.03, 1.64, 7.31, repro,
2006-11-22,2.25, 0.95, -0.59, 2.10, 1.67, 7.54, repro,
2006-11-23,1.10, 0.43, -1.59, 2.13, 1.71, 7.70, repro,
2006-11-24,2.25, -1.40, -2.76, 2.18, 1.74, 7.95, repro,
2006-11-25,1.30, -0.52, -2.75, 2.12, 1.76, 7.69, repro,
2006-11-26,1.88, -0.99, -3.89, 2.18, 1.76, 7.88, repro,
2006-11-27,1.79, 0.18, -1.66, 2.12, 1.68, 7.67, repro,
2006-11-28,0.81, -0.70, 1.96, 2.16, 1.70, 7.55, repro,
2006-11-29,0.38, -0.48, -1.91, 2.03, 1.65, 7.29, repro,
2006-11-30,1.70, -0.01, -11.88, 2.11, 1.74, 7.66, repro,
2006-12-01,2.15, 0.74, -12.38, 2.07, 1.67, 7.45, repro,
2006-12-02,2.30, -1.02, -12.29, 2.06, 1.69, 7.57, repro,
2006-12-03,1.03, -0.94, -12.80, 2.03, 1.67, 7.37, repro,
2006-12-04,0.39, -0.34, -13.11, 2.09, 1.68, 7.54, repro,
2006-12-05,1.57, -0.58, -12.28, 2.05, 1.67, 7.40, repro,
2006-12-06,1.95, -0.61, -14.01, 2.16, 1.82, 8.01, repro,
2006-12-07,1.65, -0.65, -9.70, 2.07, 1.70, 7.52, repro,
2006-12-08,1.58, -0.73, -5.92, 2.05, 1.73, 7.47, repro,
2006-12-09,0.53, -0.79, 0.64, 2.06, 1.73, 7.55, repro,
2006-12-10,0.85, -0.17, -4.26, 2.08, 1.73, 7.55, repro,
2006-12-11,0.90, -0.83, -6.89, 2.03, 1.68, 7.39, repro,
2006-12-12,-0.44, -0.14, -10.19, 2.06, 1.68, 7.47, repro,
2006-12-13,1.77, 1.43, -11.94, 2.02, 1.67, 7.37, repro,
2006-12-14,1.55, 0.19, -8.02, 1.99, 1.66, 7.29, repro,
2006-12-15,0.61, 0.30, -0.58, 2.15, 1.85, 8.10, repro,
2006-12-16,1.10, -1.01, 2.52, 2.14, 1.81, 7.82, repro,
2006-12-17,1.55, -2.08, -11.66, 2.11, 1.76, 7.81, repro,
2006-12-18,2.13, -2.45, -12.47, 2.21, 1.85, 8.24, repro,
2006-12-19,2.10, -2.03, -7.48, 2.22, 1.89, 8.34, repro,
2006-12-20,1.89, -0.73, -3.24, 2.06, 1.75, 7.61, repro,
2006-12-21,0.95, -0.92, -6.91, 2.09, 1.87, 7.89, repro,
2006-12-22,0.15, 0.35, -8.09, 2.13, 1.81, 7.85, repro,
2006-12-23,1.94, -0.93, -12.11, 2.09, 1.75, 7.73, repro,
2006-12-24,1.35, -0.08, -12.36, 2.05, 1.74, 7.66, repro,
2006-12-25,1.39, -0.61, -12.16, 2.12, 1.77, 7.85, repro,
2006-12-26,1.58, 0.44, -7.67, 2.06, 1.74, 7.63, repro,
2006-12-27,2.16, -0.94, -5.10, 2.14, 1.85, 8.12, repro,
2006-12-28,3.08, -1.50, -6.81, 2.22, 1.87, 8.25, repro,
2006-12-29,1.49, -1.76, -18.70, 2.09, 1.77, 7.95, repro,
2006-12-30,2.12, -1.46, -10.35, 2.12, 1.78, 7.89, repro,
2006-12-31,2.83, -1.17, -8.89, 2.17, 1.83, 8.21, repro,
2007-01-01,2.28, -2.23, -11.62, 2.16, 1.83, 8.13, repro,
2007-01-02,1.41, -1.27, -13.82, 2.22, 1.88, 8.20, repro,
2007-01-03,0.27, -0.20, -2.56, 2.04, 1.71, 7.60, repro,
2007-01-04,0.90, -0.30, 4.02, 2.00, 1.69, 7.47, repro,
2007-01-05,3.02, -2.76, -6.81, 2.00, 1.69, 7.43, repro,
2007-01-06,2.00, -1.13, -14.40, 2.01, 1.68, 7.38, repro,
2007-01-07,3.02, -1.46, -15.90, 2.10, 1.71, 7.62, repro,
2007-01-08,1.42, -1.19, -15.90, 2.15, 1.78, 7.85, repro,
2007-01-09,1.93, -1.10, -17.64, 2.09, 1.70, 7.49, repro,
2007-01-10,1.58, -0.01, -3.06, 2.12, 1.75, 7.63, repro,
2007-01-11,1.08, 0.77, 2.41, 2.25, 1.76, 8.10, repro,
2007-01-12,2.05, -1.07, -11.32, 2.10, 1.74, 7.59, repro,
2007-01-13,2.60, -1.86, -16.27, 2.06, 1.70, 7.49, repro,
2007-01-14,1.87, -1.27, -15.82, 2.14, 1.73, 7.87, repro,
2007-01-15,2.74, -0.88, -19.21, 2.04, 1.68, 7.36, repro,
2007-01-16,2.02, -0.73, -13.52, 2.09, 1.74, 7.59, repro,
2007-01-17,1.26, -0.69, -12.50, 2.06, 1.70, 7.49, repro,
2007-01-18,2.32, -1.43, -23.74, 2.09, 1.77, 7.69, repro,
2007-01-19,2.63, -1.76, -14.64, 2.12, 1.74, 7.81, repro,
2007-01-20,3.18, -1.36, -10.83, 2.14, 1.73, 7.85, repro,
2007-01-21,1.85, 0.23, -12.16, 2.06, 1.70, 7.48, repro,
2007-01-22,1.88, -0.29, -14.35, 2.21, 1.77, 7.74, repro,
2007-01-23,1.70, -0.70, -20.46, 2.07, 1.71, 7.51, repro,
2007-01-24,2.07, -0.61, -15.39, 2.07, 1.71, 7.53, repro,
2007-01-25,1.97, -0.45, -17.46, 2.12, 1.75, 7.63, repro,
2007-01-26,1.67, -0.92, -10.58, 2.08, 1.70, 7.48, repro,
2007-01-27,1.13, -0.37, -9.85, 2.05, 1.70, 7.45, repro,
2007-01-28,1.76, -0.96, -15.63, 2.01, 1.66, 7.19, repro,
2007-01-29,0.59, 0.15, -11.84, 2.00, 1.62, 7.08, repro,
2007-01-30,2.44, -1.02, -13.65, 2.03, 1.69, 7.34, repro,
2007-01-31,1.48, -1.11, -2.91, 2.05, 1.69, 7.41, repro,
2007-02-01,1.82, -0.08, -8.03, 2.02, 1.66, 7.27, repro,
2007-02-02,1.40, 0.10, -7.07, 2.11, 1.75, 7.69, repro,
2007-02-03,1.42, -0.01, -12.86, 2.06, 1.68, 7.41, repro,
2007-02-04,1.82, 0.46, -11.61, 2.03, 1.63, 7.22, repro,
2007-02-05,1.81, -0.32, -15.35, 2.03, 1.69, 7.35, repro,
2007-02-06,1.14, -0.62, -14.84, 2.07, 1.69, 7.36, repro,
2007-02-07,1.07, 0.31, -6.06, 1.98, 1.62, 7.10, repro,
2007-02-08,0.98, 0.37, -11.20, 2.03, 1.68, 7.31, repro,
2007-02-09,1.56, 0.19, -11.17, 2.19, 1.70, 7.71, repro,
2007-02-10,1.53, 0.56, -10.06, 2.03, 1.62, 7.21, repro,
2007-02-11,1.72, 0.21, -3.24, 2.07, 1.73, 7.51, repro,
2007-02-12,1.10, -0.40, -9.37, 2.00, 1.61, 7.09, repro,
2007-02-13,0.61, 0.15, -11.41, 1.99, 1.61, 7.05, repro,
2007-02-14,1.74, 0.40, -9.51, 1.99, 1.61, 7.04, repro,
2007-02-15,1.87, -0.74, -12.41, 1.97, 1.61, 7.04, repro,
2007-02-16,3.45, -2.91, -8.68, 2.10, 1.69, 7.55, repro,
2007-02-17,2.34, -0.98, -14.41, 2.13, 1.76, 7.70, repro,
2007-02-18,0.60, 0.60, -1.74, 2.04, 1.68, 7.32, repro,
2007-02-19,0.34, 0.14, -0.78, 1.98, 1.59, 6.96, repro,
2007-02-20,-0.50, 0.73, -5.23, 1.99, 1.62, 7.11, repro,
2007-02-21,2.25, 2.41, -1.65, 2.07, 1.69, 7.43, repro,
2007-02-22,1.44, 1.77, -3.23, 2.14, 1.74, 7.70, repro,
2007-02-23,1.72, -0.44, -1.25, 2.18, 1.78, 7.83, repro,
2007-02-24,1.02, 0.16, -7.57, 2.06, 1.71, 7.39, repro,
2007-02-25,2.43, 1.24, 1.91, 2.01, 1.67, 7.27, repro,
2007-02-26,0.56, -1.29, 0.17, 2.02, 1.68, 7.30, repro,
2007-02-27,-0.10, 0.20, 1.60, 2.03, 1.68, 7.33, repro,
2007-02-28,1.22, -0.21, 1.20, 2.13, 1.75, 7.66, repro,
2007-03-01,1.08, 0.34, -6.01, 2.29, 1.84, 8.27, repro,
2007-03-02,2.34, -0.53, -8.34, 2.13, 1.76, 7.71, repro,
2007-03-03,2.11, -0.32, -16.13, 2.06, 1.71, 7.46, repro,
2007-03-04,1.39, -0.20, -16.60, 2.07, 1.73, 7.54, repro,
2007-03-05,1.57, -1.05, -13.09, 2.08, 1.72, 7.56, repro,
2007-03-06,0.61, -0.05, -7.63, 2.14, 1.74, 7.70, repro,
2007-03-07,0.62, -1.29, -5.72, 2.21, 1.75, 7.82, repro,
2007-03-08,0.87, 0.69, -7.36, 2.08, 1.71, 7.45, repro,
2007-03-09,1.61, -0.64, -8.70, 2.11, 1.73, 7.55, repro,
2007-03-10,0.84, 0.65, -4.06, 2.17, 1.77, 7.85, repro,
2007-03-11,1.57, -0.56, -10.02, 2.09, 1.73, 7.58, repro,
2007-03-12,0.90, -0.31, -14.88, 2.09, 1.73, 7.57, repro,
2007-03-13,2.08, 0.08, -3.65, 2.06, 1.67, 7.36, repro,
2007-03-14,0.99, 2.26, -9.55, 2.03, 1.68, 7.32, repro,
2007-03-15,2.11, -0.40, -11.69, 2.13, 1.78, 7.74, repro,
2007-03-16,1.12, -0.80, -8.38, 2.08, 1.65, 7.37, repro,
2007-03-17,1.84, -1.27, -8.63, 2.03, 1.67, 7.28, repro,
2007-03-18,1.99, -1.21, -2.05, 2.04, 1.67, 7.33, repro,
2007-03-19,1.00, -0.41, -1.94, 2.11, 1.69, 7.47, repro,
2007-03-20,0.75, -0.86, 1.33, 2.09, 1.63, 7.24, repro,
2007-03-21,0.50, -1.29, -4.20, 2.10, 1.65, 7.39, repro,
2007-03-22,1.26, -1.40, -0.89, 2.05, 1.67, 7.37, repro,
2007-03-23,1.44, -1.91, -4.78, 2.03, 1.63, 7.26, repro,
2007-03-24,1.70, -1.18, 1.40, 2.08, 1.71, 7.55, repro,
2007-03-25,0.36, -1.14, -1.51, 2.10, 1.68, 7.50, repro,
2007-03-26,1.62, -1.56, -5.56, 2.01, 1.60, 7.11, repro,
2007-03-27,0.74, -1.21, -1.47, 2.05, 1.60, 7.24, repro,
2007-03-28,1.55, -1.84, -6.80, 2.09, 1.66, 7.36, repro,
2007-03-29,1.80, 0.02, -9.94, 2.01, 1.60, 7.12, repro,
2007-03-30,1.42, -0.69, -10.82, 2.07, 1.68, 7.37, repro,
2007-03-31,0.45, -1.77, 0.69, 2.08, 1.61, 7.25, repro,
2007-04-01,-0.04, -0.12, -5.63, 2.03, 1.61, 7.17, repro,
2007-04-02,0.66, 1.24, -9.03, 2.02, 1.60, 7.08, repro,
2007-04-03,1.39, 0.23, -7.26, 2.06, 1.64, 7.34, repro,
2007-04-04,0.83, -0.22, -17.47, 2.07, 1.65, 7.36, repro,
2007-04-05,-0.76, 0.09, -7.73, 2.15, 1.77, 7.75, repro,
2007-04-06,1.05, -0.92, -7.37, 2.09, 1.67, 7.44, repro,
2007-04-07,1.11, -0.98, -1.42, 2.12, 1.69, 7.49, repro,
2007-04-08,0.03, -0.26, -4.00, 2.02, 1.60, 7.09, repro,
2007-04-09,-0.03, 1.32, 0.82, 2.02, 1.60, 7.11, repro,
2007-04-10,-0.08, 1.20, -4.45, 2.07, 1.65, 7.31, repro,
2007-04-11,-0.31, -0.98, 4.32, 2.13, 1.67, 7.50, repro,
2007-04-12,1.56, -0.84, 0.24, 2.06, 1.66, 7.30, repro,
2007-04-13,0.99, -0.29, -4.47, 2.03, 1.63, 7.22, repro,
2007-04-14,0.48, 0.30, -3.99, 2.03, 1.61, 7.11, repro,
2007-04-15,0.31, -0.70, -2.83, 2.16, 1.63, 7.51, repro,
2007-04-16,-1.11, -1.60, -3.14, 2.05, 1.61, 7.23, repro,
2007-04-17,0.74, -0.99, -4.53, 2.05, 1.63, 7.33, repro,
2007-04-18,1.67, -0.89, -0.74, 2.05, 1.65, 7.28, repro,
2007-04-19,0.71, -0.64, -2.02, 2.05, 1.61, 7.21, repro,
2007-04-20,1.06, -0.75, -2.97, 2.15, 1.61, 7.42, repro,
2007-04-21,1.21, -0.54, -3.78, 2.02, 1.60, 7.19, repro,
2007-04-22,0.70, -0.59, -2.71, 2.14, 1.68, 7.65, repro,
2007-04-23,-0.44, -0.14, -2.15, 2.08, 1.69, 7.43, repro,
2007-04-24,-0.26, -0.22, -9.28, 2.14, 1.68, 7.58, repro,
2007-04-25,0.49, -0.80, -6.90, 2.04, 1.61, 7.12, repro,
2007-04-26,0.82, -0.10, -4.51, 2.03, 1.59, 7.14, repro,
2007-04-27,2.17, -0.65, -5.35, 2.03, 1.60, 7.15, repro,
2007-04-28,0.22, -0.87, -8.44, 2.04, 1.60, 7.17, repro,
2007-04-29,0.36, -0.05, -11.68, 2.17, 1.61, 7.49, repro,
2007-04-30,0.81, -0.57, -5.37, 2.01, 1.58, 7.04, repro,
2007-05-01,1.74, -1.68, -6.93, 2.01, 1.58, 7.08, repro,
2007-05-02,3.44, 1.20, -8.42, 2.09, 1.59, 7.36, repro,
2007-05-03,-0.47, 0.42, -6.17, 2.18, 1.61, 7.52, repro,
2007-05-04,0.81, -0.30, -6.61, 2.10, 1.60, 7.30, repro,
2007-05-05,1.06, -1.44, -9.47, 2.02, 1.57, 7.08, repro,
2007-05-06,1.13, -0.39, -6.92, 2.08, 1.58, 7.23, repro,
2007-05-07,2.64, -0.93, -11.04, 2.04, 1.59, 7.13, repro,
2007-05-08,2.83, -1.31, -8.87, 2.10, 1.60, 7.31, repro,
2007-05-09,1.16, -0.90, -2.58, 2.08, 1.62, 7.36, repro,
2007-05-10,1.60, -1.20, -9.56, 2.13, 1.64, 7.51, repro,
2007-05-11,-0.19, -0.30, -11.05, 2.14, 1.64, 7.48, repro,
2007-05-12,1.10, -0.93, -5.76, 2.11, 1.61, 7.41, repro,
2007-05-13,2.23, -1.32, -5.12, 2.09, 1.61, 7.24, repro,
2007-05-14,2.14, -0.55, -9.15, 2.07, 1.61, 7.24, repro,
2007-05-15,0.77, -0.30, -4.37, 2.06, 1.59, 7.16, repro,
2007-05-16,0.76, 0.20, -9.21, 2.20, 1.62, 7.61, repro,
2007-05-17,1.10, -1.31, -7.50, 2.19, 1.64, 7.56, repro,
2007-05-18,2.10, -1.38, -3.49, 2.14, 1.68, 7.53, repro,
2007-05-19,1.79, -0.80, -10.14, 2.09, 1.62, 7.23, repro,
2007-05-20,0.74, 0.12, -7.34, 2.10, 1.65, 7.33, repro,
2007-05-21,1.64, 0.37, -5.03, 2.06, 1.62, 7.21, repro,
2007-05-22,0.52, -0.90, -6.77, 2.15, 1.61, 7.32, repro,
2007-05-23,2.18, -1.34, -1.98, 2.13, 1.62, 7.28, repro,
2007-05-24,1.09, -1.64, -7.71, 2.12, 1.66, 7.33, repro,
2007-05-25,0.39, -0.57, -6.56, 2.06, 1.61, 7.21, repro,
2007-05-26,0.70, 0.21, -5.72, 2.16, 1.66, 7.49, repro,
2007-05-27,0.90, -1.00, -4.24, 2.05, 1.58, 7.11, repro,
2007-05-28,0.10, -0.08, -1.40, 2.07, 1.59, 7.06, repro,
2007-05-29,1.18, -0.90, -7.69, 2.07, 1.60, 7.15, repro,
2007-05-30,2.43, -0.12, -9.78, 2.22, 1.68, 7.55, repro,
2007-05-31,0.99, -0.16, -8.14, 2.17, 1.66, 7.46, repro,
2007-06-01,1.07, -1.08, -6.17, 2.04, 1.58, 7.09, repro,
2007-06-02,0.56, -0.31, -4.25, 2.18, 1.62, 7.49, repro,
2007-06-03,-0.21, 0.05, -6.83, 2.04, 1.58, 7.11, repro,
2007-06-04,0.54, 0.60, -3.73, 2.03, 1.58, 7.08, repro,
2007-06-05,1.42, 0.23, -1.95, 2.16, 1.66, 7.57, repro,
2007-06-06,1.35, 0.28, 6.13, 2.03, 1.58, 7.10, repro,
2007-06-07,0.73, -1.27, -1.39, 2.16, 1.61, 7.42, repro,
2007-06-08,0.74, -0.35, -3.26, 2.06, 1.59, 7.13, repro,
2007-06-09,1.07, 0.05, -8.46, 2.08, 1.60, 7.24, repro,
2007-06-10,1.76, -0.04, -6.29, 2.13, 1.66, 7.53, repro,
2007-06-11,0.65, 0.30, -4.83, 2.09, 1.68, 7.37, repro,
2007-06-12,1.06, 0.09, -8.57, 2.10, 1.65, 7.39, repro,
2007-06-13,0.87, -1.04, -11.35, 2.03, 1.59, 7.13, repro,
2007-06-14,-0.02, 0.56, -15.34, 2.08, 1.60, 7.26, repro,
2007-06-15,0.70, -1.38, -4.75, 2.02, 1.60, 7.11, repro,
2007-06-16,2.10, 0.53, -6.26, 2.07, 1.66, 7.23, repro,
2007-06-17,2.01, 0.42, -8.17, 2.05, 1.60, 7.19, repro,
2007-06-18,0.92, 0.30, -2.15, 2.06, 1.61, 7.23, repro,
2007-06-19,-0.29, 1.91, -4.56, 2.07, 1.60, 7.20, repro,
2007-06-20,-0.10, 1.50, -18.41, 2.03, 1.59, 7.08, repro,
2007-06-21,-0.30, 1.45, -5.95, 2.04, 1.61, 7.15, repro,
2007-06-22,1.71, 0.45, -9.40, 2.07, 1.65, 7.26, repro,
2007-06-23,1.50, 0.85, -9.05, 2.05, 1.59, 7.16, repro,
2007-06-24,0.77, 1.07, -7.06, 2.12, 1.65, 7.50, repro,
2007-06-25,0.39, 0.64, -8.35, 2.08, 1.60, 7.22, repro,
2007-06-26,1.07, -0.32, -9.50, 2.08, 1.63, 7.32, repro,
2007-06-27,0.62, 1.25, -11.51, 2.13, 1.69, 7.49, repro,
2007-06-28,1.55, 1.44, -5.38, 2.15, 1.66, 7.47, repro,
2007-06-29,0.44, 0.57, -4.44, 2.11, 1.61, 7.35, repro,
2007-06-30,0.10, 0.08, -6.81, 2.04, 1.59, 7.12, repro,
2007-07-01,1.75, 0.25, -3.23, 2.10, 1.60, 7.33, repro,
2007-07-02,0.85, 1.12, -8.23, 2.04, 1.60, 7.18, repro,
2007-07-03,1.08, 0.47, -8.76, 2.08, 1.60, 7.28, repro,
2007-07-04,0.44, 0.60, -5.00, 2.11, 1.62, 7.42, repro,
2007-07-05,0.75, 0.22, -8.47, 2.13, 1.67, 7.43, repro,
2007-07-06,1.40, -1.33, 0.29, 2.05, 1.59, 7.19, repro,
2007-07-07,1.12, 0.60, -2.31, 2.11, 1.62, 7.39, repro,
2007-07-08,-0.30, 1.02, -7.30, 2.20, 1.67, 7.54, repro,
2007-07-09,1.26, 0.71, -10.70, 2.08, 1.60, 7.23, repro,
2007-07-10,-0.29, 0.60, -6.61, 2.04, 1.61, 7.19, repro,
2007-07-11,1.79, 1.05, -2.37, 2.15, 1.67, 7.60, repro,
2007-07-12,-0.38, 0.12, 0.20, 2.07, 1.61, 7.25, repro,
2007-07-13,0.04, 0.38, -4.42, 2.16, 1.70, 7.62, repro,
2007-07-14,1.21, 0.65, -10.46, 2.07, 1.66, 7.28, repro,
2007-07-15,1.83, -0.44, -5.57, 2.12, 1.68, 7.49, repro,
2007-07-16,1.10, -0.05, -9.21, 2.09, 1.68, 7.42, repro,
2007-07-17,-0.77, 0.00, 2.00, 2.04, 1.60, 7.18, repro,
2007-07-18,-0.10, -0.02, -1.07, 2.04, 1.60, 7.17, repro,
2007-07-19,0.94, 0.03, -6.82, 2.05, 1.60, 7.16, repro,
2007-07-20,1.76, 0.13, -0.67, 2.13, 1.75, 7.54, repro,
2007-07-21,1.69, 0.54, 0.13, 2.12, 1.71, 7.44, repro,
2007-07-22,-0.34, 1.29, -3.05, 2.19, 1.76, 7.81, repro,
2007-07-23,1.28, 0.89, -3.41, 2.09, 1.67, 7.38, repro,
2007-07-24,1.60, 0.28, 0.58, 2.14, 1.69, 7.54, repro,
2007-07-25,1.89, 0.23, -5.98, 2.20, 1.70, 7.68, repro,
2007-07-26,1.72, -0.41, -4.03, 2.09, 1.66, 7.47, repro,
2007-07-27,2.72, -1.19, -10.06, 2.08, 1.67, 7.38, repro,
2007-07-28,-0.56, -0.20, -3.49, 2.09, 1.71, 7.53, repro,
2007-07-29,0.74, -0.25, 1.74, 2.10, 1.71, 7.54, repro,
2007-07-30,-1.96, 1.47, 2.08, 2.10, 1.69, 7.44, repro,
2007-07-31,0.27, -0.47, -2.45, 2.13, 1.70, 7.54, repro,
2007-08-01,-0.82, 1.28, 6.35, 2.09, 1.62, 7.31, repro,
2007-08-02,1.61, 0.57, 3.00, 2.09, 1.63, 7.31, repro,
2007-08-03,1.33, 1.14, 0.21, 2.14, 1.65, 7.47, repro,
2007-08-04,1.69, 0.66, -1.40, 2.06, 1.62, 7.25, repro,
2007-08-05,1.64, 0.62, 2.89, 2.11, 1.63, 7.40, repro,
2007-08-06,0.17, 1.33, 6.52, 2.15, 1.67, 7.56, repro,
2007-08-07,0.52, 0.59, 0.59, 2.24, 1.76, 7.86, repro,
2007-08-08,1.81, 0.65, 0.78, 2.11, 1.62, 7.29, repro,
2007-08-09,2.47, -2.00, 3.77, 2.04, 1.61, 7.22, repro,
2007-08-10,2.96, -0.43, -4.74, 2.07, 1.66, 7.29, repro,
2007-08-11,1.19, 1.04, -0.21, 2.02, 1.58, 7.05, repro,
2007-08-12,2.02, -0.03, 6.38, 2.12, 1.65, 7.53, repro,
2007-08-13,1.17, 0.24, -0.04, 2.22, 1.64, 7.60, repro,
2007-08-14,1.04, 0.61, -3.85, 2.23, 1.73, 7.73, repro,
2007-08-15,2.16, -2.31, -0.64, 2.17, 1.73, 7.63, repro,
2007-08-16,2.05, 0.51, 4.13, 2.11, 1.65, 7.41, repro,
2007-08-17,0.32, 0.83, -3.04, 2.17, 1.71, 7.80, repro,
2007-08-18,0.84, 2.34, 5.14, 2.41, 1.77, 8.55, repro,
2007-08-19,-0.39, 0.72, 2.85, 2.17, 1.71, 7.79, repro,
2007-08-20,2.71, 0.45, -3.68, 2.19, 1.72, 7.67, repro,
2007-08-21,0.95, 0.41, -1.91, 2.16, 1.72, 7.65, repro,
2007-08-22,3.11, 2.00, -5.29, 2.19, 1.65, 7.57, repro,
2007-08-23,1.21, -0.22, -1.09, 2.16, 1.64, 7.51, repro,
2007-08-24,1.07, 1.17, 2.05, 2.34, 1.77, 8.17, repro,
2007-08-25,0.35, 0.27, -2.84, 2.27, 1.78, 7.91, repro,
2007-08-26,3.24, -0.64, 1.36, 2.19, 1.75, 7.77, repro,
2007-08-27,-1.64, 2.27, 5.18, 2.18, 1.75, 7.80, repro,
2007-08-28,1.49, 1.01, -3.99, 2.15, 1.69, 7.54, repro,
2007-08-29,0.78, -0.02, 9.06, 2.16, 1.72, 7.73, repro,
2007-08-30,2.08, 0.83, -8.21, 2.16, 1.70, 7.64, repro,
2007-08-31,1.83, -1.20, -6.60, 2.15, 1.72, 7.60, repro,
2007-09-01,1.11, 1.26, -0.13, 2.21, 1.72, 7.76, repro,
2007-09-02,0.64, 0.24, -6.51, 2.17, 1.74, 7.68, repro,
2007-09-03,2.44, -0.59, 2.12, 2.14, 1.70, 7.59, repro,
2007-09-04,1.59, -0.58, 1.66, 2.18, 1.77, 7.71, repro,
2007-09-05,1.43, -0.45, 0.87, 2.24, 1.84, 8.12, repro,
2007-09-06,1.72, -0.68, 3.56, 2.20, 1.71, 7.68, repro,
2007-09-07,0.49, -0.00, -2.61, 2.17, 1.72, 7.68, repro,
2007-09-08,1.58, -0.27, -6.34, 2.36, 1.79, 8.25, repro,
2007-09-09,2.52, -0.28, -4.45, 2.21, 1.79, 7.90, repro,
2007-09-10,0.02, 0.10, -0.87, 2.32, 1.82, 7.99, repro,
2007-09-11,2.87, -0.39, -4.56, 2.23, 1.74, 7.79, repro,
2007-09-12,1.27, -0.18, 0.34, 2.18, 1.72, 7.60, repro,
2007-09-13,0.12, -0.56, 1.76, 2.29, 1.73, 7.85, repro,
2007-09-14,2.46, 0.01, 1.06, 2.22, 1.75, 7.79, repro,
2007-09-15,0.74, -0.71, 3.03, 2.43, 1.83, 8.23, repro,
2007-09-16,1.97, -0.53, -2.13, 2.36, 1.77, 8.04, repro,
2007-09-17,1.42, -0.73, -1.57, 2.21, 1.78, 7.82, repro,
2007-09-18,0.84, -0.54, -2.09, 2.20, 1.79, 7.98, repro,
2007-09-19,1.29, 0.16, 4.68, 2.34, 1.77, 8.13, repro,
2007-09-20,1.23, -1.82, 9.53, 2.12, 1.63, 7.28, repro,
2007-09-21,2.00, -1.60, 6.96, 2.14, 1.65, 7.56, repro,
2007-09-22,1.77, -0.09, 0.89, 2.11, 1.65, 7.35, repro,
2007-09-23,0.94, 0.46, -0.87, 2.10, 1.63, 7.30, repro,
2007-09-24,0.48, 0.41, -2.69, 2.28, 1.76, 7.88, repro,
2007-09-25,0.76, -0.02, -4.96, 2.15, 1.67, 7.54, repro,
2007-09-26,1.83, -0.17, 1.57, 2.13, 1.65, 7.47, repro,
2007-09-27,1.70, 0.16, -0.64, 2.23, 1.70, 7.85, repro,
2007-09-28,-0.11, 0.79, 4.06, 2.08, 1.65, 7.32, repro,
2007-09-29,1.00, -0.58, 7.04, 2.08, 1.66, 7.41, repro,
2007-09-30,2.33, -1.02, -1.36, 2.09, 1.67, 7.42, repro,
2007-10-01,2.13, -0.60, 3.48, 2.16, 1.72, 7.67, repro,
2007-10-02,2.57, -1.11, -5.13, 2.17, 1.76, 7.78, repro,
2007-10-03,1.08, 1.47, 5.42, 2.18, 1.77, 7.76, repro,
2007-10-04,0.28, -0.46, 2.00, 2.11, 1.69, 7.51, repro,
2007-10-05,1.99, -1.15, 8.07, 2.15, 1.76, 7.83, repro,
2007-10-06,1.69, -0.28, 0.07, 2.18, 1.70, 7.62, repro,
2007-10-07,1.35, -0.49, -8.95, 2.28, 1.74, 7.98, repro,
2007-10-08,-0.04, 0.22, -3.74, 2.37, 1.81, 8.47, repro,
2007-10-09,-0.18, 1.13, 3.38, 2.31, 1.87, 8.21, repro,
2007-10-10,0.54, 2.06, 3.38, 2.26, 1.74, 7.92, repro,
2007-10-11,1.86, 0.28, 0.80, 2.13, 1.70, 7.53, repro,
2007-10-12,1.96, -0.81, 0.12, 2.15, 1.68, 7.62, repro,
2007-10-13,0.13, -0.12, 2.40, 2.07, 1.66, 7.40, repro,
2007-10-14,-0.03, 1.28, 1.24, 2.20, 1.74, 7.76, repro,
2007-10-15,0.26, -0.37, 6.01, 2.16, 1.68, 7.58, repro,
2007-10-16,1.33, -1.13, 10.56, 2.03, 1.60, 7.12, repro,
2007-10-17,0.48, 1.23, 12.50, 2.14, 1.66, 7.54, repro,
2007-10-18,1.07, 0.79, 4.23, 2.26, 1.75, 7.98, repro,
2007-10-19,-0.78, 1.27, 0.93, 2.05, 1.63, 7.30, repro,
2007-10-20,1.14, 3.47, 24.27, 2.06, 1.63, 7.28, repro,
2007-10-21,1.16, -0.08, -0.74, 2.08, 1.66, 7.40, repro,
2007-10-22,0.82, 0.98, -6.84, 2.15, 1.67, 7.54, repro,
2007-10-23,1.08, 0.97, -7.67, 2.13, 1.71, 7.61, repro,
2007-10-24,1.30, 1.42, -2.57, 2.21, 1.74, 7.86, repro,
2007-10-25,-0.55, 1.31, -4.71, 2.08, 1.65, 7.38, repro,
2007-10-26,0.17, 0.99, -4.44, 2.10, 1.70, 7.49, repro,
2007-10-27,1.66, 0.96, -4.53, 2.29, 1.68, 7.85, repro,
2007-10-28,1.26, 0.33, -8.23, 2.07, 1.65, 7.34, repro,
2007-10-29,2.62, 0.28, -1.11, 2.22, 1.67, 7.71, repro,
2007-10-30,0.33, 1.41, -8.42, 2.07, 1.64, 7.36, repro,
2007-10-31,0.58, 0.45, -7.86, 2.08, 1.65, 7.37, repro,
2007-11-01,0.93, -0.01, -5.60, 2.18, 1.64, 7.52, repro,
2007-11-02,1.90, -0.79, -11.97, 2.15, 1.68, 7.63, repro,
2007-11-03,0.30, 1.06, -5.68, 2.08, 1.64, 7.35, repro,
2007-11-04,0.29, 0.19, -7.00, 2.04, 1.62, 7.19, repro,
2007-11-05,-0.02, 1.10, -9.90, 2.09, 1.63, 7.29, repro,
2007-11-06,1.26, 0.13, -11.22, 2.26, 1.66, 7.69, repro,
2007-11-07,1.90, 0.03, -5.67, 2.22, 1.73, 7.74, repro,
2007-11-08,0.93, 0.16, -5.83, 2.11, 1.66, 7.46, repro,
2007-11-09,-0.77, 0.56, -6.84, 2.09, 1.65, 7.35, repro,
2007-11-10,0.50, -0.46, -4.13, 2.05, 1.61, 7.19, repro,
2007-11-11,1.28, -0.25, -3.99, 2.04, 1.61, 7.18, repro,
2007-11-12,1.44, 0.44, -6.88, 2.20, 1.71, 7.67, repro,
2007-11-13,1.15, -0.56, -3.32, 2.11, 1.63, 7.33, repro,
2007-11-14,0.36, 0.86, -7.76, 2.05, 1.62, 7.23, repro,
2007-11-15,0.44, -0.06, -7.12, 2.08, 1.64, 7.35, repro,
2007-11-16,0.59, -1.11, -4.49, 2.06, 1.61, 7.24, repro,
2007-11-17,-0.04, 0.23, -10.33, 2.07, 1.63, 7.29, repro,
2007-11-18,1.44, 1.01, -10.90, 2.16, 1.73, 7.69, repro,
2007-11-19,0.31, 0.92, 2.23, 2.05, 1.62, 7.23, repro,
2007-11-20,-0.02, 0.38, -7.06, 2.12, 1.72, 7.44, repro,
2007-11-21,2.10, -0.57, -9.16, 2.04, 1.65, 7.27, repro,
2007-11-22,2.29, 0.25, -12.25, 2.19, 1.70, 7.60, repro,
2007-11-23,1.88, 0.31, -3.83, 2.16, 1.79, 7.70, repro,
2007-11-24,1.48, -0.99, -4.23, 2.20, 1.74, 7.65, repro,